Regional Weather Roundup
Issued by NWS

Home | Current Version | Previous Version | Text Only | Print | Product List | Glossary On
Versions: 1 2 3 4 5 6 7 8 9 10 11 12 13 14 15 16 17 18 19 20 21 22 23 24 25 26 27 28 29 30 31 32 33 34 35 36 37 38 39 40 41 42 43 44 45 46 47 48 49 50
000
ASUS43 KTOP 010808
RWRKS

WEATHER ROUNDUP FOR KANSAS
NATIONAL WEATHER SERVICE GOODLAND KS
300 AM CDT MON SEP 01 2014

NOTE:  "FAIR" INDICATES FEW OR NO CLOUDS BELOW 12,000 FEET WITH NO
SIGNIFICANT WEATHER AND/OR OBSTRUCTIONS TO VISIBILITY.

KSZ001>006-013>018-027>032-041>047-010900-
NORTHWEST KANSAS

CITY           SKY/WX    TMP DP  RH WIND       PRES   REMARKS
GOODLAND       CLEAR     52  50  93 N7        29.97R
HAYS           CLEAR     63  57  82 W3        29.82R
HILL CITY      CLEAR     63  59  87 CALM      29.84S
RUSSELL        MOCLDY    64  62  93 SW5       29.80R
$$

KSZ061>065-074>080-084>089-010900-
SOUTHWEST KANSAS

CITY           SKY/WX    TMP DP  RH WIND       PRES   REMARKS
DODGE CITY     CLEAR     65  59  81 E9        29.81S
ELKHART          N/A     65  54  68 N9          N/A
GARDEN CITY    CLEAR     63  58  83 NE12      29.84R
GREAT BEND     CLOUDY    64  61  88 SE14      29.81R
LIBERAL        CLEAR     70  57  64 NE14      29.83R
PRATT          PTCLDY    64  59  82 E12       29.84S
$$

KSZ066>073-081>083-090>101-010900-
SOUTHEAST KANSAS

CITY           SKY/WX    TMP DP  RH WIND       PRES   REMARKS
CHANUTE        TSTM      63  62  97 N10       29.94F FOG
COFFEYVILLE    TSTM      78  69  73 N31G40    29.92R
HUTCHINSON     CLOUDY    65  61  87 N8        29.86R
MEDICINE LODGE   N/A     72  64  76 NE16G25   29.79R
NEWTON         CLOUDY    61  55  82 NE8       29.90R
PARSONS        TSTM      67  64  90 N22G45    29.96R FOG
WICHITA INTL   MOCLDY    66  62  87 E17       29.84R
WICHITA JABRA  CLOUDY    63  63 100 E8G20     29.86R
WICHITA MCCONL MOCLDY    64  64 100 NE13      29.85F
WINFIELD       CLOUDY    66  63  90 NE20G29   29.86F
$$

KSZ007>012-019>026-033>040-048>060-102>105-010900-
NORTHEAST KANSAS

CITY           SKY/WX    TMP DP  RH WIND       PRES   REMARKS
CONCORDIA      CLOUDY    67  66  97 S14       29.80R
EMPORIA        LGT RAIN  63  63 100 S5        29.90R
LAWRENCE       LGT RAIN N/A N/A N/A SE10      29.88F
MANHATTAN      CLOUDY    68  32  26 S13       29.79F
OLATHE IND     LGT RAIN  66  65  96 CALM      29.92R
OLATHE EXE     LGT RAIN  65  65 100 S5        29.92R
SALINA         CLOUDY    65  61  87 S14       29.79F
TOPEKA BILLARD TSTM      68  67  96 SE12      29.85F
TOPEKA FORBES  RAIN      67  65  93 E13       29.83F FOG
$$



USA.gov is the U.S. government's official web portal to all federal, state and local government web resources and services.